{"data":{"norad_id":61754,"intl_designator":"2024-199V","name":"HORS 4 (RS82S)","alt_names":[],"object_type":"PAYLOAD","status":"ACTIVE","operator":null,"country":"CIS","launch_date":"2024-11-04","launch_site_code":"VOSTO","launch_vehicle":null,"mission":null,"orbit_class":"UNKNOWN","rcs_meters":null,"size_class":null,"mass_kg":null,"dimensions":null,"purposes":["comms"],"wikipedia_slug":null,"has_3d_model":false,"image_url":null,"decayed_at":null,"tle_current":{"epoch":"2026-05-25T04:38:39.135264Z","epoch_age_seconds":51696,"freshness":"FRESH","line1":"1 61754U 24199V   26145.19350851  .00046293  00000+0  63205-3 0  9990","line2":"2 61754  97.2966  21.6641 0005659  24.9667 335.1861 15.57330693134066","mean_motion":15.57330693,"eccentricity":0.0005659,"inclination_deg":97.2966,"raan_deg":21.6641,"arg_perigee_deg":24.9667,"mean_anomaly_deg":335.1861,"bstar":0.00063205,"rev_number":13406,"period_min":92.465910193167,"perigee_km":391.55290675293,"apogee_km":399.2191801335,"semimajor_km":6773.5230434432,"source":"CELESTRAK","updated_at":"2026-05-25T13:38:23.294608Z"}}}